Create Custom Reports and Graphics: Custom Report

Map - Northern Napa County

Map

15 Minute Data

Map - Southern Napa County

Map

15 Minute Data

Northeast Napa County

10 Stations

15 Minute Data | America/Los_Angeles
as of 5/7/26 9:41 PM PDT
Station Date Time Temp (°F) RH (%) Dew Pt (°F) Wind Spd (mph) Wind Dir (°) Wind Gust (mph) Latest Rain (In) Daily Rain (In) Daily Max Temp (°F) Daily Min Temp (°F)
Dollarhide 18A Remote 5/7/26 2130 64.6   2.6 78   0 57.7   2.6 - - - - - 82.6   2.5 44.7   9.8
Dollarhide 1AS Remote 5/7/26 2130 65.8   3.3 76   1 58.2   2.6 3.3   0.7 SSE | 163 7.3   1.9 - - 83.3   2.9 47.1   8.2
Angwin 5/7/26 2130 61.9   3.5 79   2 55.4   2.8 2.8   0.9 W | 266 7.2   0.7 0.00 0.00 73.0   3.2 54.9   4.9
Lower Angwin (Pioneer) 5/7/26 2130 58.9   2.5 - - 0.7   0.5 WSW | 252 3.2   2.0 - - 74.6   3.1 45.5   5.4
Lower Chiles Valley (Brown) 5/7/26 2130 61.6   1.9 82   3 55.9   3.0 4.1   3.2 SSW | 198 7.3   4.1 0.00 0.00 79.2   2.5 49.5   3.6
Deer Park 5/7/26 2130 58.9   1.1 82   5 53.6   0.9 2.9   1.7 SE | 141 4.7   3.2 0.00 0.00 79.7   2.6 50.9   2.6
Moss Creek Vineyard/Reservior 5/7/26 2115 63.2   1.3 83   11 58.0   5.3 - - - 0.00 0.00 84.0   6.0 50.2   4.4
Montesol 5/7/26 2130 56.1   2.1 - - - - - 0.00 0.00 75.3   0.5 47.8   4.1
Dollarhide Base 5/7/26 2130 65.8   2.6 77   0 58.5   2.6 2.7   0.4 SE | 132 5.5   0.1 0.00 0.00 83.5   3.4 49.1   6.3
Pope Valley (Weeks Lake) 5/7/26 2130 62.6   4.6 81   4 56.8   3.2 0.6   0.5 E | 95 2.4   1.5 0.00 0.00 82.1   3.3 45.9   9.1
Max     65.8 83 58.5 4.1 - 7.3 0.00 0.00 84.0 54.9
Avg     61.9 80 56.8 2.5 - 5.4 0.00 - - -
Min     56.1 76 53.6 0.6 - 2.4 0.00 0.00 73.0 44.7

Northern & Central Napa County

32 Stations

15 Minute Data | America/Los_Angeles
as of 5/7/26 9:41 PM PDT
Station Date Time Temp (°F) RH (%) Dew Pt (°F) Wind Spd (mph) Wind Dir (°) Wind Gust (mph) Latest Rain (In) Daily Rain (In) Daily Max Temp (°F) Daily Min Temp (°F)
Calistoga-North 5/7/26 2130 61.1   1.3 83   0 55.8   1.4 - - - 0.00 0.00 82.0   1.3 51.8   3.2
Stags Leap Dist (Chimney Rock) 5/7/26 2130 56.7   2.9 86   6 52.8   0.9 3.4   0.8 S | 174 6.9   2.1 0.00 0.00 77.2   0.5 52.4   2.2
Diamond Mtn (McEachran) 5/7/26 2130 62.0   1.4 79   4 55.3   2.8 - - - - - 77.9   1.4 50.4   3.4
Diamond Mtn (Schramsberg) 5/7/26 2130 59.2   1.4 84   3 54.6   2.5 - - - 0.00 0.00 78.5   1.7 49.3   3.2
Stags Leap Dist (Silverado Vineyards) 5/7/26 2130 56.8   2.9 81   6 51.2   0.6 5.7   0.2 SE | 133 12.4   0.1 0.00 0.00 76.2   0.5 51.9   2.2
Oak Knoll-East (Ranch 53) 5/7/26 2130 55.7   2.4 86   5 51.6   0.7 3.2   0.5 ESE | 123 6.6   0.1 0.00 0.00 77.4   0.1 52.6   2.8
Rutherford-North (Mee Ln) 5/7/26 2130 58.2   2.9 82   6 53.0   0.7 1.9   1.6 SSE | 160 5.5   0.0 0.00 0.00 79.3   0.6 50.2   4.2
Frisinger Napa-NW 5/7/26 2130 56.4   1.7 86   0 52.2   1.8 1.8   1.4 NNE | 30 3.1   1.5 0.00 0.00 77.4   1.9 53.0   2.1
Napa-North (Ranch 29) 5/7/26 2130 55.5   2.3 86   5 51.5   0.5 0.6   0.3 SSE | 161 3.8   0.4 0.00 0.00 75.7   0.3 51.9   3.1
St. Helena (NVV Office) 5/7/26 2130 61.7   1.5 - - 1.2   0.2 ESE | 105 3.6   0.1 0.00 0.00 83.1   3.0 53.2   2.9
Crossroads Ranch 5/7/26 2130 58.2   2.5 80   4 52.1   1.2 6.3   1.6 SSE | 157 9.9   3.0 0.00 0.00 78.1   0.8 53.1   2.5
Oakville 5/7/26 2130 58.1   2.6 81   6 52.3   0.6 3.8   0.5 SSE | 152 7.7   1.2 0.00 0.00 78.0   0.7 52.8   2.7
OV561-East 5/7/26 2130 58.4   2.0 - - - - - - - 81.9   0.9 53.2   2.1
OV518-West 5/7/26 2130 58.2   2.7 - - - - - - - 77.4   0.1 53.1   2.3
Napa-NW (Ranch 54) 5/7/26 2130 57.2   1.6 84   1 52.4   1.9 0.1   0.0 NE | 39 1.0   0.4 0.00 0.00 79.6   2.1 52.9   2.6
Calistoga (Ranch 78) 5/7/26 2130 62.1   1.8 76   0 54.3   1.7 3.4   0.1 NW | 313 7.2   1.4 0.00 0.00 79.6   0.2 51.7   3.5
Yountville-SE (Ranch 85) 5/7/26 2130 56.6   2.5 86   5 52.4   0.8 3.1   1.4 SSW | 198 6.4   0.8 0.00 0.00 77.2   0.5 52.8   2.2
Yountville-South (Ranch 87) 5/7/26 2130 56.6   2.5 88   6 53.0   0.3 1.9   1.4 SSE | 159 3.8   4.9 0.00 0.00 79.0   2.7 52.6   2.6
Rutherford Hill Estate 5/7/26 2130 58.1   3.3 82   7 52.7   0.6 0.8   0.3 S | 173 3.3   0.4 0.00 0.00 79.9   0.2 51.8   2.6
Rutherford (STS) 5/7/26 2130 58.6   0.9 86   0 54.4   0.9 1.9   1.1 SSE | 152 5.6   2.6 0.00 0.00 80.1   1.3 52.7   2.4
Borreo (Soda Canyon) 5/7/26 2130 54.9   1.6 89   4 51.8   0.4 0.9   0.5 NNE | 15 2.9   0.0 0.00 0.00 74.6   0.5 49.6   3.0
Oakville-NE (Ranch 88) 5/7/26 2130 58.1   2.0 80   3 51.8   1.1 2.8   1.9 S | 188 6.2   2.7 0.00 0.00 79.3   0.7 52.6   3.0
Soda Canyon 5/7/26 2130 55.8   1.9 85   3 51.3   0.8 2.6   0.1 SSE | 150 7.1   0.7 0.00 0.00 75.6   0.6 47.3   6.8
Silver Oak OV 5/7/26 2130 58.2   2.4 82   5 53.0   0.7 5.6   1.0 SSE | 153 9.9   2.2 0.00 0.00 77.7   0.2 53.0   2.7
Tiara Fria (East St. Helena) 5/7/26 2130 61.0   2.0 77   5 53.9   0.0 3.0   2.0 ESE | 122 7.2   2.4 0.00 0.00 81.5   2.5 53.3   3.0
To Kalon Remote (TKKE) 5/7/26 2130 58.8   2.4 - - - - - - - 80.3   0.9 53.2   2.9
To Kalon 5/7/26 2130 57.7   2.2 85   4 53.2   0.8 3.5   0.1 SSE | 161 6.5   0.5 0.00 0.00 78.7   0.2 53.1   2.2
To Kalon Remote (TKN5) 5/7/26 2130 58.3   2.4 - - - - - - - 81.0   2.2 53.4   2.3
St. Helena-North 5/7/26 2130 61.7   0.7 74   7 53.4   2.0 1.8   0.9 SSE | 159 4.4   2.4 0.00 0.00 82.7   2.5 52.5   2.8
Twomey Calistoga 5/7/26 2130 61.4   2.2 82   1 55.9   2.5 1.5   0.1 WNW | 287 3.7   0.6 0.00 0.00 79.2   1.2 52.1   2.9
Wappo Hill Floor 5/7/26 2130 56.3   2.7 85   5 51.7   0.9 3.2   0.7 S | 174 7.1   1.0 0.00 0.00 78.0   1.0 51.4   2.7
Yountville (Ranch 67) 5/7/26 2130 56.8   2.7 81   6 50.9   0.5 5.2   1.2 SSW | 203 8.8   1.1 0.00 0.00 76.3   0.1 52.0   2.4
Max     62.1 89 55.9 6.3 - 12.4 0.00 0.00 83.1 53.4
Avg     58.3 83 52.9 2.8 - 6.0 0.00 - - -
Min     54.9 74 50.9 0.1 - 1.0 0.00 0.00 74.6 47.3

Southern Napa County

23 Stations

15 Minute Data | America/Los_Angeles
as of 5/7/26 9:41 PM PDT
Station Date Time Temp (°F) RH (%) Dew Pt (°F) Wind Spd (mph) Wind Dir (°) Wind Gust (mph) Latest Rain (In) Daily Rain (In) Daily Max Temp (°F) Daily Min Temp (°F)
Carneros (Milton Rd) 5/7/26 2130 53.5   1.4 90   4 50.8   0.3 - - - 0.00 0.00 74.4   0.9 51.5   3.2
Carneros Lower (Ranch 81) 5/7/26 2130 53.0   1.2 91   2 50.6   0.7 0.9   0.5 SSE | 153 4.5   2.0 0.00 0.01 78.0   2.8 51.1   3.1
Carneros Upper (Ranch 81) 5/7/26 2130 52.3   1.2 94   3 50.6   0.2 13.1   0.6 W | 260 17.3   1.5 - - 73.2   0.2 50.9   2.7
Carneros (Mitsuko) 5/7/26 2130 53.0   1.6 - - - - - - - 74.9   0.3 50.1   4.3
Mount George (Napa East) 5/7/26 2130 56.2   2.1 86   2 52.2   1.4 1.5   1.2 SSE | 154 4.4   2.3 0.00 0.00 75.4   1.1 52.2   3.4
Napa-East (Palmaz 300') 5/7/26 2130 56.4   0.0 85   6 51.9   1.9 1.4   0.6 S | 179 4.7   2.6 0.00 0.00 75.9   0.5 51.0   3.3
Napa-East (Palmaz 1200') 5/7/26 2130 52.9   0.3 78   5 45.0   2.2 0.6   0.3 S | 184 2.6   0.4 - - 70.9   0.4 48.4   3.1
Napa-East (Palmaz 1400') 5/7/26 2130 53.8   1.1 94   6 52.2   0.7 2.9   2.3 SW | 228 4.9   1.9 0.00 0.01 70.9   0.6 47.8   3.3
Dealy Lane (Ranch 80) 5/7/26 2130 53.4   1.5 90   5 50.6   0.1 1.7   0.6 W | 270 6.6   1.8 0.00 0.00 76.0   0.6 51.7   3.2
Suscol Mtn (Ranch 93) 5/7/26 2130 51.0   0.7 98   4 50.4   0.3 3.7   1.6 WNW | 297 6.5   2.6 0.00 0.00 74.2   1.7 48.9   2.6
Carneros (Saintsbury) 5/7/26 2130 52.3   2.0 92   6 50.1   0.3 6.6   2.5 SW | 232 11.3   3.3 0.00 0.00 76.1   1.2 49.3   4.4
Sugarloaf West 5/7/26 2130 54.6   0.6 89   2 51.5   0.1 4.1   0.3 SSE | 160 8.1   1.1 0.00 0.00 73.4   0.4 52.3   1.9
Suscol Upper (Ranch 92) 5/7/26 2130 51.5   1.0 3   89 -27.0   77.3 0.1   0.1 SW | 222 2.7   0.1 0.00 0.00 71.3   2.3 49.5   2.5
Stanly (Ranch 45) 5/7/26 2130 53.6   1.3 89   3 50.3   0.4 6.1   1.9 SW | 228 10.4   2.8 0.00 0.00 75.2   2.1 50.4   3.4
Suscol Lower (Ranch 35) 5/7/26 2130 53.4   0.5 90   3 50.7   0.3 4.4   0.4 S | 185 9.9   3.3 0.00 0.00 74.6   0.5 51.6   2.0
Napa-South (Toyon Farms) 5/7/26 2130 53.8   1.7 95   4 52.4   0.4 0.1   1.4 SW | 225 1.9   4.0 0.00 0.00 74.7   0.6 50.5   3.9
Toyon Remote 1 5/7/26 2130 53.1   0.7 - - - - - - - 78.0   0.2 45.8   7.4
Toyon Remote 2 5/7/26 2130 54.0   1.6 - - - - - - - 75.6   0.4 50.0   4.2
Toyon Remote 3 5/7/26 2130 53.9   1.5 - - - - - - - 78.1   0.4 49.7   5.0
Napa-West Lower (Truchard) 5/7/26 2130 53.7   2.9 88   7 50.4   0.7 - - - - - 78.8   0.4 46.5   7.5
Napa-West Upper (Truchard) 5/7/26 2130 53.7   2.5 100   15 53.7   1.8 2.3   4.1 S | 173 5.0   5.2 0.00 0.00 76.7   0.6 49.7   4.4
Mt. Veeder 5/7/26 2130 60.0   2.8 82   2 54.5   3.5 0.1   0.5 WNW | 288 0.9   1.3 0.00 0.00 75.6   5.1 47.3   3.6
Wooden Valley 5/7/26 2130 60.6   1.3 76   1 52.8   1.7 4.8   2.2 WSW | 248 9.6   4.4 0.00 0.00 75.3   1.9 49.7   4.6
Max     60.6 100 54.5 13.1 - 17.3 0.00 0.01 78.8 52.3
Avg     54.1 85 47.0 3.2 - 6.5 0.00 - - -
Min     51.0 3 -27.0 0.1 - 0.9 0.00 0.00 70.9 45.8